Hourly Weather Al Kufah

Today, 30 November, Monday

Time Temperature Precipitation Wind Pressure Humidity
00:00 +18°C° 0 mm 1 mps 763 mmHg 60%
01:00 +18°C° 0 mm 1 mps 762 mmHg 61%
02:00 +18°C° 0 mm 1 mps 762 mmHg 61%
03:00 +16°C° 0 mm 1 mps 762 mmHg 62%
04:00 +16°C° 0 mm 1 mps 762 mmHg 62%
05:00 +16°C° 0 mm 1 mps 762 mmHg 63%
06:00 +16°C° 0 mm 1 mps 762 mmHg 63%
07:00 +18°C° 0 mm 1 mps 763 mmHg 59%
08:00 +18°C° 0 mm 1 mps 763 mmHg 54%
09:00 +19°C° 0 mm 1 mps 763 mmHg 50%
10:00 +19°C° 0 mm 2 mps 763 mmHg 47%
11:00 +20°C° 0 mm 2 mps 763 mmHg 44%
12:00 +21°C° 0 mm 2 mps 763 mmHg 41%
13:00 +21°C° 0 mm 2 mps 762 mmHg 40%
14:00 +21°C° 0 mm 2 mps 762 mmHg 39%
15:00 +23°C° 0 mm 2 mps 761 mmHg 38%
16:00 +21°C° 0 mm 2 mps 761 mmHg 41%
17:00 +20°C° 0 mm 2 mps 761 mmHg 44%
18:00 +20°C° 0 mm 2 mps 761 mmHg 47%
19:00 +19°C° 0 mm 2 mps 762 mmHg 49%
20:00 +19°C° 0 mm 2 mps 762 mmHg 51%
21:00 +18°C° 0 mm 2 mps 762 mmHg 53%
22:00 +19°C° 0 mm 1 mps 762 mmHg 55%
23:00 +18°C° 0 mm 1 mps 762 mmHg 56%

Tomorrow, 1 December, Tuesday

Time Temperature Precipitation Wind Pressure Humidity
00:00 +18°C° 0 mm 1 mps 762 mmHg 58%
01:00 +18°C° 0 mm 1 mps 762 mmHg 59%
02:00 +16°C° 0 mm 1 mps 761 mmHg 59%
03:00 +16°C° 0 mm 1 mps 761 mmHg 60%
04:00 +16°C° 0 mm 1 mps 761 mmHg 60%
05:00 +16°C° 0 mm 1 mps 761 mmHg 61%
06:00 +15°C° 0 mm 1 mps 761 mmHg 61%
07:00 +18°C° 0 mm 1 mps 761 mmHg 57%
08:00 +19°C° 0 mm 1 mps 762 mmHg 53%
09:00 +19°C° 0 mm 2 mps 762 mmHg 48%
10:00 +20°C° 0 mm 2 mps 761 mmHg 45%
11:00 +20°C° 0 mm 2 mps 761 mmHg 42%
12:00 +21°C° 0 mm 2 mps 761 mmHg 39%
13:00 +22°C° 0 mm 3 mps 761 mmHg 37%
14:00 +22°C° 0 mm 3 mps 760 mmHg 35%
15:00 +24°C° 0 mm 3 mps 759 mmHg 34%
16:00 +22°C° 0 mm 3 mps 760 mmHg 36%
17:00 +21°C° 0 mm 3 mps 760 mmHg 38%
18:00 +21°C° 0 mm 3 mps 760 mmHg 40%
19:00 +21°C° 0 mm 3 mps 760 mmHg 42%
20:00 +20°C° 0 mm 4 mps 760 mmHg 44%
21:00 +20°C° 0 mm 4 mps 761 mmHg 46%
22:00 +19°C° 0.4 mm 4 mps 761 mmHg 55%
23:00 +18°C° 0.4 mm 4 mps 761 mmHg 64%

Day after tomorrow, 2 December, Wednesday

Time Temperature Precipitation Wind Pressure Humidity
00:00 +17°C° 0.4 mm 4 mps 761 mmHg 73%
01:00 +15°C° 2 mm 4 mps 761 mmHg 78%
02:00 +15°C° 2 mm 4 mps 760 mmHg 83%
03:00 +14°C° 2 mm 4 mps 760 mmHg 88%
04:00 +14°C° 1.9 mm 4 mps 760 mmHg 88%
05:00 +14°C° 1.9 mm 5 mps 760 mmHg 87%
06:00 +14°C° 1.9 mm 5 mps 761 mmHg 87%
07:00 +14°C° 0.7 mm 5 mps 761 mmHg 86%
08:00 +15°C° 0.7 mm 5 mps 761 mmHg 85%
09:00 +15°C° 0.7 mm 5 mps 761 mmHg 84%
10:00 +15°C° 0.2 mm 5 mps 760 mmHg 82%
11:00 +16°C° 0.2 mm 5 mps 760 mmHg 80%
12:00 +16°C° 0.2 mm 5 mps 760 mmHg 78%
13:00 +17°C° 0.9 mm 4 mps 759 mmHg 80%
14:00 +17°C° 0.9 mm 4 mps 759 mmHg 82%
15:00 +17°C° 0.9 mm 3 mps 759 mmHg 84%
16:00 +17°C° 0.3 mm 3 mps 759 mmHg 85%
17:00 +17°C° 0.3 mm 3 mps 759 mmHg 85%
18:00 +17°C° 0.3 mm 3 mps 760 mmHg 85%
19:00 +17°C° 0 mm 3 mps 760 mmHg 84%
20:00 +17°C° 0 mm 3 mps 760 mmHg 84%
21:00 +17°C° 0 mm 3 mps 761 mmHg 83%
22:00 +17°C° 0 mm 2 mps 761 mmHg 83%
23:00 +17°C° 0 mm 2 mps 761 mmHg 82%

3 December, Thursday

Time Temperature Precipitation Wind Pressure Humidity
00:00 +17°C° 0 mm 2 mps 761 mmHg 82%
01:00 +17°C° 0 mm 2 mps 761 mmHg 82%
02:00 +17°C° 0 mm 2 mps 761 mmHg 82%
03:00 +17°C° 0 mm 2 mps 761 mmHg 82%
04:00 +17°C° 0 mm 3 mps 761 mmHg 81%
05:00 +17°C° 0 mm 3 mps 762 mmHg 81%
06:00 +17°C° 0 mm 3 mps 762 mmHg 81%
07:00 +17°C° 0 mm 3 mps 762 mmHg 79%
08:00 +18°C° 0 mm 3 mps 763 mmHg 77%
09:00 +18°C° 0 mm 2 mps 763 mmHg 75%
10:00 +18°C° 0 mm 2 mps 763 mmHg 72%
11:00 +19°C° 0 mm 2 mps 763 mmHg 68%
12:00 +20°C° 0 mm 2 mps 763 mmHg 64%
13:00 +20°C° 0 mm 2 mps 762 mmHg 61%
14:00 +21°C° 0 mm 2 mps 762 mmHg 57%
15:00 +21°C° 0 mm 2 mps 762 mmHg 54%
16:00 +21°C° 0 mm 2 mps 762 mmHg 56%
17:00 +20°C° 0 mm 3 mps 762 mmHg 58%
18:00 +20°C° 0 mm 3 mps 762 mmHg 60%
19:00 +19°C° 0 mm 3 mps 762 mmHg 62%
20:00 +19°C° 0 mm 3 mps 762 mmHg 64%
21:00 +18°C° 0 mm 3 mps 762 mmHg 66%
22:00 +18°C° 0 mm 3 mps 763 mmHg 65%
23:00 +18°C° 0 mm 3 mps 763 mmHg 64%

4 December, Friday

Time Temperature Precipitation Wind Pressure Humidity
00:00 +18°C° 0 mm 3 mps 763 mmHg 64%
01:00 +17°C° 0 mm 3 mps 762 mmHg 64%
02:00 +17°C° 0 mm 3 mps 762 mmHg 64%
03:00 +17°C° 0 mm 3 mps 762 mmHg 64%
04:00 +16°C° 0 mm 3 mps 762 mmHg 65%
05:00 +16°C° 0 mm 3 mps 762 mmHg 65%
06:00 +16°C° 0 mm 2 mps 762 mmHg 65%
07:00 +17°C° 0 mm 3 mps 762 mmHg 62%
08:00 +17°C° 0 mm 3 mps 762 mmHg 58%
09:00 +18°C° 0 mm 3 mps 762 mmHg 55%
10:00 +19°C° 0 mm 3 mps 762 mmHg 50%
11:00 +20°C° 0 mm 3 mps 762 mmHg 45%
12:00 +21°C° 0 mm 3 mps 761 mmHg 39%
13:00 +21°C° 0 mm 3 mps 761 mmHg 38%
14:00 +21°C° 0 mm 3 mps 761 mmHg 37%
15:00 +22°C° 0 mm 3 mps 760 mmHg 36%
16:00 +21°C° 0 mm 3 mps 760 mmHg 40%
17:00 +20°C° 0 mm 3 mps 761 mmHg 43%
18:00 +19°C° 0 mm 3 mps 761 mmHg 46%
19:00 +19°C° 0 mm 3 mps 761 mmHg 46%
20:00 +18°C° 0 mm 3 mps 761 mmHg 47%
21:00 +18°C° 0 mm 3 mps 761 mmHg 47%
22:00 +18°C° 0 mm 2 mps 761 mmHg 48%
23:00 +17°C° 0 mm 2 mps 761 mmHg 49%

5 December, Saturday

Time Temperature Precipitation Wind Pressure Humidity
00:00 +17°C° 0 mm 2 mps 760 mmHg 50%
01:00 +17°C° 0 mm 2 mps 760 mmHg 50%
02:00 +16°C° 0 mm 2 mps 760 mmHg 50%
03:00 +16°C° 0 mm 2 mps 760 mmHg 50%
04:00 +16°C° 0 mm 2 mps 760 mmHg 50%
05:00 +16°C° 0 mm 2 mps 760 mmHg 50%
06:00 +16°C° 0 mm 2 mps 760 mmHg 49%
07:00 +16°C° 0 mm 2 mps 760 mmHg 48%
08:00 +17°C° 0 mm 2 mps 760 mmHg 46%
09:00 +18°C° 0 mm 2 mps 761 mmHg 44%
10:00 +18°C° 0 mm 2 mps 760 mmHg 42%
11:00 +19°C° 0 mm 2 mps 760 mmHg 41%
12:00 +19°C° 0 mm 3 mps 760 mmHg 39%
13:00 +19°C° 0 mm 2 mps 759 mmHg 39%
14:00 +19°C° 0 mm 2 mps 759 mmHg 39%
15:00 +21°C° 0 mm 1 mps 759 mmHg 40%
16:00 +19°C° 0 mm 2 mps 759 mmHg 41%
17:00 +19°C° 0 mm 2 mps 759 mmHg 42%
18:00 +19°C° 0 mm 2 mps 759 mmHg 44%
19:00 +18°C° 0 mm 3 mps 759 mmHg 46%
20:00 +18°C° 0 mm 3 mps 759 mmHg 48%
21:00 +17°C° 0 mm 3 mps 759 mmHg 50%
22:00 +17°C° 0 mm 3 mps 759 mmHg 50%
23:00 +16°C° 0 mm 3 mps 759 mmHg 50%
Show more